User: anonymous   Login
Location: Unspecified
(0.0000°N, 0.0000°E)
Time: 20:41:57
(UTC+00:00)
Language:

OBJECT C - Orbit

View from above orbital plane
View from above orbital plane
View from above satellite
View from above satellite

Ground track
Ground track

The orbit is defined by the following mean orbital elements,

1 63293U          26145.61908389 +.00000000 +00000-0 +39183-3 0 00005
2 63293  97.6481 286.3666 0042421 215.9981 143.8389 15.09849604    07
Epoch (UTC): 25 May 2026 14:51:28
Eccentricity: 0.0042421
inclination: 97.6481°
perigee height: 507 km
apogee height: 566 km
right ascension of ascending node: 286.3666°
argument of perigee: 215.9981°
revolutions per day: 15.09849604
mean anomaly at epoch: 143.8389°

The dashed part of the orbit path shows where the satellite is in the earth's shadow,  

DLR